| time (UTC) | temp F | wind direction | speed MPH | gust MPH | rain 1hr in | rain 24hr in | rain mn in | humidity % | barometer mb |
| 20260831192535 | 77 | 149 | 5.0 | 8.0 | 0.00 | 0.08 | 0.00 | 45 | 1020.2 |
| 20260831191537 | 78 | 136 | 5.0 | 10.0 | 0.00 | 0.08 | 0.00 | 45 | 1020.5 |
| 20260831185539 | 78 | 67 | 2.0 | 4.0 | 0.00 | 0.08 | 0.00 | 45 | 1020.8 |
| 20260831184553 | 78 | 103 | 5.0 | 8.0 | 0.00 | 0.08 | 0.00 | 44 | 1020.8 |
| 20260831183651 | 77 | 77 | 4.0 | 6.0 | 0.00 | 0.08 | 0.00 | 43 | 1021.0 |
| 20260831182737 | 77 | 115 | 5.0 | 10.0 | 0.00 | 0.08 | 0.00 | 44 | 1021.2 |
| 20260831182637 | 77 | 105 | 6.0 | 9.0 | 0.00 | 0.08 | 0.00 | 45 | 1021.2 |
| 20260831182539 | 77 | 119 | 3.0 | 8.0 | 0.00 | 0.08 | 0.00 | 45 | 1021.3 |
| 20260831181538 | 76 | 156 | 3.0 | 5.0 | 0.00 | 0.08 | 0.00 | 46 | 1021.5 |
| 20260831180635 | 75 | 112 | 6.0 | 9.0 | 0.00 | 0.08 | 0.00 | 47 | 1021.5 |
| 20260831175637 | 75 | 156 | 4.0 | 7.0 | 0.00 | 0.08 | 0.00 | 46 | 1021.7 |
| 20260831175535 | 75 | 149 | 4.0 | 8.0 | 0.00 | 0.08 | 0.00 | 47 | 1021.7 |
| 20260831174538 | 74 | 148 | 3.0 | 6.0 | 0.00 | 0.08 | 0.00 | 46 | 1021.8 |
| 20260831173537 | 74 | 128 | 6.0 | 9.0 | 0.00 | 0.08 | 0.00 | 47 | 1021.7 |
| 20260831165753 | 73 | 175 | 7.0 | 11.0 | 0.00 | 0.08 | 0.00 | 51 | 1021.8 |
| 20260831164835 | 72 | 175 | 6.0 | 11.0 | 0.00 | 0.08 | 0.00 | 50 | 1021.9 |
| 20260831163853 | 73 | 171 | 5.0 | 10.0 | 0.00 | 0.08 | 0.00 | 48 | 1021.8 |
| 20260831162852 | 73 | 167 | 5.0 | 8.0 | 0.00 | 0.08 | 0.00 | 49 | 1021.8 |
| 20260831161852 | 72 | 180 | 1.0 | 3.0 | 0.00 | 0.08 | 0.00 | 51 | 1021.6 |
| 20260831160837 | 72 | 183 | 2.0 | 4.0 | 0.00 | 0.08 | 0.00 | 51 | 1021.7 |
| 20260831155935 | 72 | 180 | 5.0 | 7.0 | 0.00 | 0.08 | 0.00 | 53 | 1021.6 |
| 20260831154037 | 70 | 225 | 2.0 | 3.0 | 0.00 | 0.08 | 0.00 | 56 | 1021.3 |
| 20260831153037 | 70 | 135 | 0.0 | 1.0 | 0.00 | 0.08 | 0.00 | 59 | 1021.5 |
| 20260831152052 | 70 | 135 | 2.0 | 3.0 | 0.00 | 0.08 | 0.00 | 60 | 1021.6 |
| 20260831151037 | 69 | 135 | 1.0 | 1.0 | 0.00 | 0.08 | 0.00 | 61 | 1021.6 |
| 20260831145052 | 68 | 135 | 0.0 | 0.0 | 0.00 | 0.08 | 0.00 | 63 | 1022.0 |
| 20260831143135 | 66 | 360 | 1.0 | 1.0 | 0.00 | 0.08 | 0.00 | 66 | 1022.0 |
| 20260831142137 | 64 | 292 | 0.0 | 1.0 | 0.00 | 0.08 | 0.00 | 71 | 1021.9 |
| 20260831141236 | 62 | 292 | 0.0 | 1.0 | 0.00 | 0.08 | 0.00 | 74 | 1021.9 |
| 20260831140137 | 61 | 157 | 0.0 | 1.0 | 0.00 | 0.08 | 0.00 | 79 | 1022.1 |
| 20260831135137 | 59 | 157 | 0.0 | 0.0 | 0.00 | 0.08 | 0.00 | 82 | 1021.8 |
| 20260831134137 | 59 | 157 | 0.0 | 0.0 | 0.00 | 0.08 | 0.00 | 82 | 1021.6 |
| 20260831133237 | 58 | 157 | 0.0 | 0.0 | 0.00 | 0.09 | 0.00 | 83 | 1021.5 |
| 20260831131337 | 57 | 157 | 0.0 | 0.0 | 0.00 | 0.13 | 0.00 | 83 | 1021.3 |
| 20260831130336 | 57 | 157 | 0.0 | 0.0 | 0.00 | 0.13 | 0.00 | 82 | 1021.2 |
| 20260831130235 | 57 | 157 | 0.0 | 0.0 | 0.00 | 0.13 | 0.00 | 83 | 1021.2 |
| 20260831125236 | 57 | 157 | 0.0 | 0.0 | 0.00 | 0.13 | 0.00 | 84 | 1021.1 |
| 20260831124236 | 56 | 157 | 0.0 | 0.0 | 0.00 | 0.13 | 0.00 | 83 | 1021.1 |
| 20260831123237 | 56 | 157 | 0.0 | 0.0 | 0.00 | 0.13 | 0.00 | 84 | 1021.1 |
| 20260831122237 | 56 | 157 | 0.0 | 0.0 | 0.00 | 0.13 | 0.00 | 84 | 1021.1 |
| 20260831121253 | 56 | 157 | 0.0 | 0.0 | 0.00 | 0.13 | 0.00 | 83 | 1021.1 |
| 20260831120237 | 56 | 157 | 0.0 | 0.0 | 0.00 | 0.13 | 0.00 | 83 | 1021.3 |
| 20260831114336 | 56 | 157 | 0.0 | 0.0 | 0.00 | 0.13 | 0.00 | 81 | 1021.2 |
| 20260831114238 | 56 | 157 | 0.0 | 0.0 | 0.00 | 0.13 | 0.00 | 81 | 1021.2 |
| 20260831113237 | 56 | 157 | 0.0 | 0.0 | 0.00 | 0.13 | 0.00 | 80 | 1021.4 |
| 20260831112336 | 57 | 157 | 0.0 | 0.0 | 0.00 | 0.13 | 0.00 | 79 | 1021.5 |
| 20260831105339 | 58 | 157 | 0.0 | 0.0 | 0.00 | 0.13 | 0.00 | 77 | 1021.4 |
| 20260831104437 | 58 | 157 | 0.0 | 0.0 | 0.00 | 0.13 | 0.00 | 77 | 1021.3 |
| 20260831103438 | 59 | 157 | 0.0 | 0.0 | 0.00 | 0.13 | 0.00 | 75 | 1021.4 |
| 20260831102437 | 60 | 157 | 0.0 | 0.0 | 0.00 | 0.13 | 0.00 | 75 | 1021.3 |
| 20260831101436 | 59 | 157 | 0.0 | 1.0 | 0.00 | 0.13 | 0.00 | 78 | 1021.1 |
| 20260831095537 | 58 | 157 | 0.0 | 0.0 | 0.00 | 0.13 | 0.00 | 85 | 1020.8 |
| 20260831092635 | 57 | 157 | 0.0 | 0.0 | 0.00 | 0.13 | 0.00 | 84 | 1020.8 |
| 20260831092537 | 57 | 157 | 0.0 | 0.0 | 0.00 | 0.13 | 0.00 | 84 | 1020.8 |
| 20260831091552 | 58 | 157 | 0.0 | 0.0 | 0.00 | 0.13 | 0.00 | 83 | 1020.6 |
| 20260831091435 | 58 | 157 | 0.0 | 0.0 | 0.00 | 0.13 | 0.00 | 82 | 1020.8 |
| 20260831090438 | 58 | 157 | 0.0 | 0.0 | 0.00 | 0.13 | 0.00 | 83 | 1020.7 |
| 20260831084539 | 59 | 157 | 0.0 | 0.0 | 0.00 | 0.13 | 0.00 | 82 | 1020.8 |
| 20260831083636 | 59 | 157 | 0.0 | 0.0 | 0.00 | 0.14 | 0.00 | 82 | 1020.8 |
| 20260831082637 | 58 | 157 | 0.0 | 0.0 | 0.00 | 0.14 | 0.00 | 80 | 1021.0 |
| 20260831081636 | 59 | 157 | 0.0 | 0.0 | 0.00 | 0.14 | 0.00 | 79 | 1020.8 |
| 20260831080635 | 59 | 157 | 0.0 | 0.0 | 0.00 | 0.14 | 0.00 | 78 | 1021.1 |
| 20260831075637 | 60 | 157 | 0.0 | 0.0 | 0.00 | 0.14 | 0.00 | 78 | 1021.2 |
| 20260831074638 | 60 | 157 | 0.0 | 1.0 | 0.00 | 0.14 | 0.00 | 78 | 1021.1 |
| 20260831074539 | 60 | 157 | 0.0 | 0.0 | 0.00 | 0.14 | 0.00 | 79 | 1021.1 |
| 20260831073537 | 59 | 157 | 0.0 | 0.0 | 0.00 | 0.14 | 0.00 | 79 | 1021.3 |
| 20260831072635 | 59 | 157 | 0.0 | 0.0 | 0.00 | 0.14 | 0.00 | 77 | 1021.4 |
| 20260831071637 | 60 | 157 | 0.0 | 0.0 | 0.00 | 0.15 | 0.00 | 78 | 1021.4 |
| 20260831070735 | 60 | 157 | 0.0 | 0.0 | 0.00 | 0.15 | 0.00 | 78 | 1021.3 |
| 20260831065737 | 61 | 157 | 0.0 | 0.0 | 0.00 | 0.15 | 0.00 | 77 | 1021.2 |
| 20260831063836 | 61 | 157 | 0.0 | 0.0 | 0.00 | 0.15 | 0.00 | 77 | 1021.1 |
| 20260831061935 | 62 | 157 | 0.0 | 0.0 | 0.00 | 0.15 | 0.00 | 76 | 1021.4 |
| 20260831060937 | 62 | 157 | 0.0 | 0.0 | 0.00 | 0.15 | 0.00 | 76 | 1021.1 |
| 20260831054943 | 62 | 157 | 0.0 | 0.0 | 0.00 | 0.15 | 0.15 | 76 | 1021.1 |
| 20260831051944 | 62 | 157 | 0.0 | 0.0 | 0.00 | 0.16 | 0.15 | 79 | 1021.3 |
| 20260831050945 | 62 | 157 | 0.0 | 0.0 | 0.00 | 0.16 | 0.15 | 80 | 1021.4 |
| 20260831045958 | 62 | 157 | 0.0 | 0.0 | 0.00 | 0.16 | 0.15 | 81 | 1021.3 |
| 20260831045044 | 63 | 157 | 0.0 | 0.0 | 0.00 | 0.18 | 0.15 | 81 | 1021.2 |
| 20260831044044 | 63 | 157 | 0.0 | 0.0 | 0.00 | 0.20 | 0.15 | 79 | 1021.1 |
| 20260831042142 | 63 | 157 | 0.0 | 0.0 | 0.00 | 0.21 | 0.15 | 77 | 1021.0 |
| 20260831041144 | 64 | 157 | 1.0 | 1.0 | 0.00 | 0.21 | 0.15 | 75 | 1020.9 |
| 20260831040241 | 64 | 157 | 0.0 | 0.0 | 0.00 | 0.21 | 0.15 | 72 | 1020.9 |
| 20260831035244 | 65 | 157 | 0.0 | 0.0 | 0.00 | 0.21 | 0.15 | 73 | 1020.6 |
| 20260831034244 | 64 | 157 | 0.0 | 0.0 | 0.00 | 0.21 | 0.15 | 74 | 1020.6 |
| 20260831033342 | 64 | 157 | 0.0 | 0.0 | 0.00 | 0.22 | 0.15 | 74 | 1020.4 |
| 20260831032345 | 65 | 157 | 0.0 | 0.0 | 0.00 | 0.22 | 0.15 | 72 | 1020.5 |
| 20260831031343 | 65 | 157 | 0.0 | 0.0 | 0.00 | 0.22 | 0.15 | 72 | 1020.6 |
| 20260831030344 | 66 | 157 | 0.0 | 0.0 | 0.00 | 0.22 | 0.15 | 71 | 1020.5 |
| 20260831025442 | 66 | 157 | 0.0 | 0.0 | 0.00 | 0.22 | 0.15 | 70 | 1020.3 |
| 20260831024442 | 67 | 157 | 0.0 | 1.0 | 0.00 | 0.22 | 0.15 | 69 | 1020.2 |
| 20260831023443 | 67 | 157 | 0.0 | 0.0 | 0.00 | 0.22 | 0.15 | 67 | 1020.1 |
| 20260831021444 | 68 | 157 | 0.0 | 0.0 | 0.00 | 0.22 | 0.15 | 62 | 1019.9 |
| 20260831020541 | 69 | 157 | 0.0 | 0.0 | 0.00 | 0.22 | 0.15 | 61 | 1019.6 |
| 20260831015543 | 70 | 157 | 1.0 | 2.0 | 0.00 | 0.22 | 0.15 | 59 | 1019.6 |
| 20260831014641 | 71 | 157 | 2.0 | 4.0 | 0.00 | 0.22 | 0.15 | 56 | 1019.6 |
| 20260831013642 | 72 | 123 | 2.0 | 5.0 | 0.00 | 0.22 | 0.15 | 54 | 1019.5 |
| 20260831012644 | 73 | 157 | 2.0 | 3.0 | 0.00 | 0.23 | 0.15 | 51 | 1019.4 |
| 20260831011743 | 75 | 136 | 1.0 | 2.0 | 0.00 | 0.26 | 0.15 | 45 | 1019.5 |
| 20260831010743 | 76 | 162 | 5.0 | 7.0 | 0.00 | 0.47 | 0.15 | 41 | 1019.3 |
| 20260831005743 | 77 | 225 | 1.0 | 3.0 | 0.00 | 0.47 | 0.15 | 43 | 1019.3 |
| 20260831004841 | 76 | 67 | 0.0 | 0.0 | 0.00 | 0.47 | 0.15 | 44 | 1019.3 |
| 20260831003842 | 77 | 67 | 0.0 | 1.0 | 0.00 | 0.47 | 0.15 | 44 | 1019.5 |
| 20260831002844 | 78 | 30 | 5.0 | 9.0 | 0.00 | 0.47 | 0.15 | 43 | 1019.3 |
| 20260831001843 | 78 | 22 | 3.0 | 5.0 | 0.00 | 0.47 | 0.15 | 44 | 1019.4 |
| 20260831000942 | 78 | 33 | 6.0 | 8.0 | 0.00 | 0.47 | 0.15 | 44 | 1019.3 |
| 20260830235942 | 78 | 28 | 6.0 | 9.0 | 0.00 | 0.47 | 0.15 | 45 | 1019.2 |
| 20260830235844 | 78 | 26 | 6.0 | 11.0 | 0.00 | 0.47 | 0.15 | 45 | 1019.1 |
| 20260830234941 | 77 | 31 | 5.0 | 10.0 | 0.00 | 0.47 | 0.15 | 42 | 1019.0 |
| 20260830233942 | 75 | 292 | 0.0 | 1.0 | 0.00 | 0.47 | 0.15 | 43 | 1019.1 |
| 20260830233041 | 74 | 337 | 0.0 | 0.0 | 0.00 | 0.47 | 0.15 | 43 | 1019.4 |
| 20260830232041 | 74 | 337 | 0.0 | 0.0 | 0.04 | 0.47 | 0.15 | 42 | 1019.6 |
| 20260830231043 | 73 | 337 | 0.0 | 0.0 | 0.08 | 0.47 | 0.15 | 48 | 1019.5 |
| 20260830225145 | 73 | 337 | 2.0 | 3.0 | 0.08 | 0.47 | 0.15 | 51 | 1019.6 |
| 20260830224142 | 72 | 270 | 1.0 | 2.0 | 0.08 | 0.47 | 0.15 | 59 | 1019.6 |
| 20260830223142 | 71 | 337 | 0.0 | 0.0 | 0.08 | 0.47 | 0.15 | 66 | 1019.6 |
| 20260830222157 | 72 | 181 | 0.0 | 0.0 | 0.04 | 0.43 | 0.11 | 61 | 1019.8 |
| 20260830221243 | 73 | 180 | 0.0 | 1.0 | 0.00 | 0.39 | 0.07 | 59 | 1020.1 |
| 20260830220242 | 73 | 193 | 4.0 | 7.0 | 0.00 | 0.39 | 0.07 | 56 | 1019.6 |
| 20260830215244 | 73 | 194 | 3.0 | 4.0 | 0.00 | 0.39 | 0.07 | 57 | 1019.4 |
| 20260830214242 | 73 | 162 | 3.0 | 4.0 | 0.00 | 0.39 | 0.07 | 56 | 1019.6 |
| 20260830213242 | 74 | 132 | 4.0 | 8.0 | 0.00 | 0.39 | 0.07 | 54 | 1020.0 |
| 20260830212242 | 76 | 133 | 4.0 | 7.0 | 0.00 | 0.39 | 0.07 | 49 | 1019.8 |
| 20260830210342 | 76 | 142 | 5.0 | 7.0 | 0.00 | 0.39 | 0.07 | 56 | 1020.1 |
| 20260830205342 | 76 | 123 | 5.0 | 8.0 | 0.00 | 0.39 | 0.07 | 54 | 1020.1 |
| 20260830204344 | 76 | 151 | 5.0 | 11.0 | 0.00 | 0.39 | 0.07 | 54 | 1020.4 |
| 20260830203441 | 76 | 123 | 2.0 | 5.0 | 0.00 | 0.39 | 0.07 | 54 | 1020.6 |
| 20260830202444 | 76 | 114 | 4.0 | 7.0 | 0.00 | 0.39 | 0.07 | 56 | 1020.6 |
| 20260830201542 | 75 | 154 | 1.0 | 5.0 | 0.00 | 0.39 | 0.07 | 57 | 1020.8 |
| 20260830200543 | 74 | 158 | 4.0 | 5.0 | 0.00 | 0.39 | 0.07 | 58 | 1020.8 |
| 20260830194641 | 73 | 119 | 4.0 | 11.0 | 0.00 | 0.39 | 0.07 | 55 | 1020.8 |